Weather reports worldwide

Advertisment
Tyndrum, United Kingdom (99020): temperature & dewpoint: 22.02.2017 14:00:00 - 28.02.2017 14:00:00 (GMT)Tyndrum, United Kingdom (99020): precipitation: 22.02.2017 14:00:00 - 28.02.2017 14:00:00 (GMT)
Date & Time tt [°C] td [°C] rr [mm]
28.02.2017 14:00:00 5,9 -1,6 0,0
28.02.2017 13:00:00 5,2 -2,2 0,0
28.02.2017 12:00:00 5,0 0,3 0,0
28.02.2017 11:00:00 3,3 0,5 0,0
28.02.2017 10:00:00 1,6 1,2 0,2
28.02.2017 09:00:00 -0,5 -0,7 0,0
28.02.2017 08:00:00 -2,1 -2,5 0,0
28.02.2017 07:00:00 -2,8 -3,1 0,0
28.02.2017 06:00:00 -3,7 -4,4 0,0
28.02.2017 05:00:00 -2,5 -3,0 0,0
28.02.2017 04:00:00 -2,9 -3,5 0,0
28.02.2017 03:00:00 -3,0 -3,4 0,0
28.02.2017 02:00:00 -3,8 -4,5 0,0
28.02.2017 01:00:00 -3,5 -4,1 0,0
28.02.2017 00:00:00 -3,3 -3,9 0,0
27.02.2017 23:00:00 -2,7 -3,2 0,0
27.02.2017 22:00:00 -2,7 -3,5 0,0
27.02.2017 21:00:00 -1,8 -2,6 0,0
27.02.2017 20:00:00 -1,1 -1,9 0,0
27.02.2017 19:00:00 -0,6 -2,1 0,0
27.02.2017 18:00:00 1,7 -1,9 0,0
27.02.2017 17:00:00 3,4 -1,1 0,0
27.02.2017 16:00:00 4,2 -1,0 0,0
27.02.2017 15:00:00 4,6 -0,7 0,0
27.02.2017 14:00:00 4,9 -1,0 0,0
27.02.2017 13:00:00 3,9 -1,5 0,0
27.02.2017 12:00:00 4,3 -1,7 0,0
27.02.2017 11:00:00 4,8 -0,4 0,0
27.02.2017 10:00:00 2,6 -1,5 0,0
27.02.2017 09:00:00 2,5 -0,1 0,0
27.02.2017 08:00:00 -0,5 -1,5 0,0
27.02.2017 07:00:00 0,3 -1,5 0,0
27.02.2017 06:00:00 1,8 -1,6 0,0
27.02.2017 05:00:00 2,3 -1,4 0,0
27.02.2017 04:00:00 1,6 -1,0 0,0
27.02.2017 03:00:00 3,0 -1,6 0,0
27.02.2017 02:00:00 3,0 -0,8 0,2
27.02.2017 01:00:00 2,7 0,1 0,6
27.02.2017 00:00:00 1,2 -0,1 2,2
26.02.2017 23:00:00 1,9 -0,2 1,2
26.02.2017 22:00:00 3,1 0,5 0,6
26.02.2017 21:00:00 4,5 0,6 0,0
26.02.2017 20:00:00 4,3 0,5 0,0
26.02.2017 19:00:00 4,3 1,9 0,8
26.02.2017 18:00:00 5,1 2,6 0,0
26.02.2017 17:00:00 5,5 3,1 0,6
26.02.2017 16:00:00 6,7 4,2 2,8
26.02.2017 15:00:00 6,3 5,7 2,8
26.02.2017 14:00:00 6,6 5,7 4,6
26.02.2017 13:00:00 6,6 5,4 4,0
26.02.2017 12:00:00 7,0 5,6 2,6
26.02.2017 11:00:00 6,5 5,5 1,6
26.02.2017 10:00:00 6,3 5,0 0,8
26.02.2017 09:00:00 6,3 4,8 0,4
26.02.2017 08:00:00 5,3 3,9 6,4
26.02.2017 07:00:00 4,6 2,9 5,0
26.02.2017 06:00:00 5,0 3,1 0,6
26.02.2017 05:00:00 5,1 2,5 0,0
26.02.2017 04:00:00 5,2 2,5 0,2
26.02.2017 03:00:00 5,0 2,8 0,0
26.02.2017 02:00:00 5,0 2,8 0,2
26.02.2017 01:00:00 4,7 3,0 0,2
26.02.2017 00:00:00 5,0 3,1 0,2
25.02.2017 23:00:00 5,1 3,2 0,0
25.02.2017 22:00:00 3,8 3,0 0,0
25.02.2017 21:00:00 4,3 3,4 0,4
25.02.2017 20:00:00 3,9 2,8 0,0
25.02.2017 19:00:00 5,0 3,3 0,2
25.02.2017 18:00:00 5,7 2,7 0,0
25.02.2017 17:00:00 6,3 2,4 0,0
25.02.2017 16:00:00 7,4 3,0 0,0
25.02.2017 15:00:00 7,4 4,7 0,0
25.02.2017 14:00:00 8,2 4,7 0,0
25.02.2017 13:00:00 8,9 6,0 0,0
25.02.2017 12:00:00 8,3 6,6 0,4
25.02.2017 11:00:00 8,6 7,3 2,4
25.02.2017 10:00:00 8,9 7,3 3,4
25.02.2017 09:00:00 8,7 7,1 2,8
25.02.2017 08:00:00 7,3 6,2 4,4
25.02.2017 07:00:00 6,8 6,0 2,6
25.02.2017 06:00:00 6,8 5,9 1,2
25.02.2017 05:00:00 6,5 5,7 0,8
25.02.2017 04:00:00 6,5 5,7 0,8
25.02.2017 03:00:00 6,4 5,4 1,2
25.02.2017 02:00:00 6,3 5,4 1,2
25.02.2017 01:00:00 6,0 5,0 1,0
25.02.2017 00:00:00 5,8 4,7 0,4
24.02.2017 23:00:00 4,9 4,1 1,2
24.02.2017 22:00:00 4,0 2,9 0,8
24.02.2017 21:00:00 3,1 2,2 2,2
24.02.2017 20:00:00 2,8 1,8 1,6
24.02.2017 19:00:00 2,7 1,7 2,2
24.02.2017 18:00:00 2,2 1,3 2,8
24.02.2017 17:00:00 3,1 1,9 1,6
24.02.2017 16:00:00 3,5 1,9 0,8
24.02.2017 15:00:00 4,3 1,8 0,2
24.02.2017 14:00:00 5,1 1,9 0,0
24.02.2017 13:00:00 4,6 1,3 0,0
24.02.2017 12:00:00 4,9 2,0 0,0
24.02.2017 11:00:00 4,6 2,2 0,0
24.02.2017 10:00:00 3,1 2,4 0,0
24.02.2017 09:00:00 0,9 0,7 0,0
24.02.2017 08:00:00 0,0 -0,3 0,0
24.02.2017 07:00:00 -0,1 -0,5 0,0
24.02.2017 06:00:00 0,3 -0,1 0,0
24.02.2017 05:00:00 0,7 0,2 0,0
24.02.2017 04:00:00 0,8 0,1 0,0
24.02.2017 03:00:00 1,9 0,4 0,0
24.02.2017 02:00:00 1,6 0,6 0,2
24.02.2017 01:00:00 1,5 0,9 0,0
24.02.2017 00:00:00 1,6 0,9 0,2
23.02.2017 23:00:00 1,5 0,7 0,2
23.02.2017 22:00:00 1,4 1,0 0,2
23.02.2017 21:00:00 1,5 1,1 0,4
23.02.2017 20:00:00 1,7 1,2 0,4
23.02.2017 19:00:00 1,8 1,2 0,0
23.02.2017 18:00:00 2,2 1,2 0,0
23.02.2017 17:00:00 3,0 1,6 0,0
23.02.2017 16:00:00 3,8 2,1 0,0
23.02.2017 15:00:00 3,3 2,1 0,0
23.02.2017 14:00:00 2,7 2,0 0,4
23.02.2017 13:00:00 2,3 1,4 0,8
23.02.2017 12:00:00 2,1 1,0 0,6
23.02.2017 11:00:00 2,5 0,6 1,6
23.02.2017 10:00:00 2,0 0,6 2,8
23.02.2017 09:00:00 1,9 -0,3 2,8
23.02.2017 08:00:00 1,7 -0,2 2,8
23.02.2017 07:00:00 1,6 -0,2 2,4
23.02.2017 06:00:00 1,2 0,0 2,4
23.02.2017 05:00:00 1,2 0,1 2,6
23.02.2017 04:00:00 1,6 0,4 3,6
23.02.2017 03:00:00 1,3 0,2 2,4
23.02.2017 02:00:00 1,7 0,2 2,0
23.02.2017 01:00:00 1,4 1,1 0,2
23.02.2017 00:00:00 1,0 0,7 0,0
22.02.2017 23:00:00 1,0 0,6 0,0
22.02.2017 22:00:00 1,0 0,6 0,0
22.02.2017 21:00:00 1,3 0,6 0,0
22.02.2017 20:00:00 1,5 0,5 0,0
22.02.2017 19:00:00 2,4 1,4 0,0
22.02.2017 18:00:00 3,7 1,9 0,0
22.02.2017 17:00:00 3,7 2,3 1,0
22.02.2017 16:00:00 5,1 2,6 0,8
22.02.2017 15:00:00 5,4 3,5 0,4
22.02.2017 14:00:00 5,7 2,8 1,2

tt = temperature
td = dewpoint
rr = precipitation

Next stations